Hourly Weather Alpuyeca

Today, 11 May, Tuesday

Time Temperature Precipitation Wind Pressure Humidity
00:00 +24°C° 0.6 mm 0 mps 673 mmHg 70%
01:00 +23°C° 0.6 mm 0 mps 672 mmHg 73%
02:00 +25°C° 0.6 mm 1 mps 672 mmHg 76%
03:00 +22°C° 0.9 mm 0 mps 672 mmHg 79%
04:00 +22°C° 0.9 mm 0 mps 673 mmHg 82%
05:00 +21°C° 0.9 mm 0 mps 673 mmHg 84%
06:00 +23°C° 0.3 mm 0 mps 673 mmHg 78%
07:00 +24°C° 0.3 mm 0 mps 674 mmHg 71%
08:00 +28°C° 0.3 mm 1 mps 675 mmHg 65%
09:00 +29°C° 0.2 mm 1 mps 675 mmHg 59%
10:00 +31°C° 0.2 mm 1 mps 674 mmHg 53%
11:00 +33°C° 0.2 mm 1 mps 674 mmHg 47%
12:00 +33°C° 0.1 mm 1 mps 674 mmHg 43%
13:00 +34°C° 0.1 mm 1 mps 673 mmHg 40%
14:00 +35°C° 0.1 mm 1 mps 672 mmHg 37%
15:00 +35°C° 0.1 mm 2 mps 672 mmHg 39%
16:00 +34°C° 0.1 mm 2 mps 672 mmHg 41%
17:00 +32°C° 0.1 mm 2 mps 671 mmHg 43%
18:00 +31°C° 0.2 mm 2 mps 672 mmHg 48%
19:00 +30°C° 0.2 mm 1 mps 672 mmHg 52%
20:00 +29°C° 0.2 mm 1 mps 673 mmHg 56%
21:00 +28°C° 0.5 mm 1 mps 673 mmHg 60%
22:00 +27°C° 0.5 mm 1 mps 673 mmHg 64%
23:00 +27°C° 0.5 mm 1 mps 674 mmHg 68%

Tomorrow, 12 May, Wednesday

Time Temperature Precipitation Wind Pressure Humidity
00:00 +24°C° 0.8 mm 0 mps 673 mmHg 71%
01:00 +24°C° 0.8 mm 0 mps 673 mmHg 74%
02:00 +23°C° 0.8 mm 0 mps 673 mmHg 76%
03:00 +23°C° 0.3 mm 0 mps 673 mmHg 77%
04:00 +23°C° 0.3 mm 0 mps 673 mmHg 78%
05:00 +22°C° 0.3 mm 0 mps 673 mmHg 79%
06:00 +24°C° 0.2 mm 0 mps 674 mmHg 73%
07:00 +25°C° 0.2 mm 0 mps 675 mmHg 68%
08:00 +26°C° 0.2 mm 0 mps 675 mmHg 62%
09:00 +30°C° 0.2 mm 1 mps 675 mmHg 56%
10:00 +32°C° 0.2 mm 1 mps 675 mmHg 50%
11:00 +33°C° 0.2 mm 1 mps 675 mmHg 45%
12:00 +34°C° 0.2 mm 1 mps 674 mmHg 43%
13:00 +34°C° 0.2 mm 1 mps 673 mmHg 40%
14:00 +35°C° 0.2 mm 1 mps 673 mmHg 38%
15:00 +34°C° 0.4 mm 2 mps 672 mmHg 43%
16:00 +32°C° 0.4 mm 2 mps 672 mmHg 49%
17:00 +30°C° 0.4 mm 3 mps 672 mmHg 54%
18:00 +28°C° 2.2 mm 2 mps 673 mmHg 62%
19:00 +27°C° 2.2 mm 2 mps 673 mmHg 70%
20:00 +25°C° 2.2 mm 1 mps 674 mmHg 79%
21:00 +25°C° 1.9 mm 1 mps 675 mmHg 81%
22:00 +24°C° 1.9 mm 1 mps 675 mmHg 84%
23:00 +23°C° 1.9 mm 1 mps 676 mmHg 87%

Day after tomorrow, 13 May, Thursday

Time Temperature Precipitation Wind Pressure Humidity
00:00 +23°C° 1.9 mm 1 mps 675 mmHg 88%
01:00 +23°C° 1.9 mm 1 mps 675 mmHg 88%
02:00 +22°C° 1.9 mm 1 mps 675 mmHg 89%
03:00 +20°C° 0.2 mm 0 mps 675 mmHg 88%
04:00 +20°C° 0.2 mm 0 mps 675 mmHg 87%
05:00 +20°C° 0.2 mm 0 mps 675 mmHg 86%
06:00 +22°C° 0 mm 0 mps 676 mmHg 81%
07:00 +23°C° 0 mm 0 mps 676 mmHg 75%
08:00 +26°C° 0 mm 1 mps 677 mmHg 70%
09:00 +27°C° 0.1 mm 1 mps 676 mmHg 63%
10:00 +29°C° 0.1 mm 1 mps 676 mmHg 56%
11:00 +30°C° 0.1 mm 1 mps 676 mmHg 50%
12:00 +31°C° 0.2 mm 1 mps 676 mmHg 47%
13:00 +32°C° 0.2 mm 1 mps 675 mmHg 44%
14:00 +33°C° 0.2 mm 1 mps 674 mmHg 41%
15:00 +32°C° 0.2 mm 1 mps 674 mmHg 43%
16:00 +31°C° 0.2 mm 2 mps 674 mmHg 45%
17:00 +31°C° 0.2 mm 2 mps 673 mmHg 47%
18:00 +29°C° 0.1 mm 2 mps 674 mmHg 50%
19:00 +28°C° 0.1 mm 1 mps 674 mmHg 52%
20:00 +27°C° 0.1 mm 1 mps 675 mmHg 55%
21:00 +27°C° 0 mm 1 mps 675 mmHg 57%
22:00 +27°C° 0 mm 1 mps 675 mmHg 58%
23:00 +26°C° 0 mm 1 mps 675 mmHg 59%

14 May, Friday

Time Temperature Precipitation Wind Pressure Humidity
00:00 +26°C° 0 mm 1 mps 675 mmHg 60%
01:00 +25°C° 0 mm 1 mps 675 mmHg 62%
02:00 +23°C° 0 mm 0 mps 674 mmHg 63%
03:00 +23°C° 0 mm 0 mps 675 mmHg 64%
04:00 +22°C° 0 mm 0 mps 675 mmHg 65%
05:00 +22°C° 0 mm 0 mps 675 mmHg 66%
06:00 +23°C° 0 mm 0 mps 675 mmHg 60%
07:00 +27°C° 0 mm 1 mps 676 mmHg 54%
08:00 +28°C° 0 mm 1 mps 676 mmHg 48%
09:00 +30°C° 0 mm 1 mps 676 mmHg 44%
10:00 +31°C° 0 mm 1 mps 676 mmHg 40%
11:00 +34°C° 0 mm 2 mps 676 mmHg 37%
12:00 +33°C° 0.1 mm 1 mps 675 mmHg 35%
13:00 +34°C° 0.1 mm 1 mps 675 mmHg 34%
14:00 +35°C° 0.1 mm 1 mps 674 mmHg 32%
15:00 +34°C° 0.1 mm 1 mps 674 mmHg 33%
16:00 +33°C° 0.1 mm 1 mps 673 mmHg 35%
17:00 +33°C° 0.1 mm 1 mps 673 mmHg 36%
18:00 +31°C° 0.3 mm 1 mps 673 mmHg 42%
19:00 +30°C° 0.3 mm 1 mps 674 mmHg 47%
20:00 +28°C° 0.3 mm 1 mps 674 mmHg 53%
21:00 +27°C° 1.6 mm 1 mps 674 mmHg 60%
22:00 +26°C° 1.6 mm 1 mps 675 mmHg 67%
23:00 +25°C° 1.6 mm 1 mps 675 mmHg 73%

15 May, Saturday

Time Temperature Precipitation Wind Pressure Humidity
00:00 +24°C° 1.4 mm 1 mps 675 mmHg 77%
01:00 +23°C° 1.4 mm 1 mps 675 mmHg 82%
02:00 +23°C° 1.4 mm 1 mps 675 mmHg 86%
03:00 +23°C° 0.2 mm 1 mps 675 mmHg 85%
04:00 +23°C° 0.2 mm 1 mps 675 mmHg 84%
05:00 +21°C° 0.2 mm 0 mps 675 mmHg 83%
06:00 +22°C° 0 mm 0 mps 675 mmHg 76%
07:00 +24°C° 0 mm 0 mps 676 mmHg 69%
08:00 +25°C° 0 mm 0 mps 676 mmHg 62%
09:00 +29°C° 0.1 mm 1 mps 676 mmHg 56%
10:00 +30°C° 0.1 mm 1 mps 676 mmHg 51%
11:00 +31°C° 0.1 mm 1 mps 676 mmHg 46%
12:00 +32°C° 0.1 mm 2 mps 675 mmHg 43%
13:00 +34°C° 0.1 mm 2 mps 674 mmHg 41%
14:00 +34°C° 0.1 mm 2 mps 673 mmHg 39%
15:00 +34°C° 0.2 mm 2 mps 673 mmHg 41%
16:00 +32°C° 0.2 mm 2 mps 673 mmHg 43%
17:00 +31°C° 0.2 mm 2 mps 672 mmHg 45%
18:00 +30°C° 0.4 mm 1 mps 673 mmHg 51%
19:00 +28°C° 0.4 mm 1 mps 673 mmHg 57%
20:00 +25°C° 0.4 mm 0 mps 673 mmHg 63%
21:00 +25°C° 0.5 mm 0 mps 674 mmHg 65%
22:00 +24°C° 0.5 mm 0 mps 674 mmHg 67%
23:00 +24°C° 0.5 mm 0 mps 674 mmHg 68%

16 May, Sunday

Time Temperature Precipitation Wind Pressure Humidity
00:00 +24°C° 0.4 mm 0 mps 674 mmHg 70%
01:00 +23°C° 0.4 mm 0 mps 674 mmHg 72%
02:00 +23°C° 0.4 mm 0 mps 674 mmHg 74%
03:00 +23°C° 0.4 mm 0 mps 674 mmHg 76%
04:00 +22°C° 0.4 mm 0 mps 674 mmHg 79%
05:00 +22°C° 0.4 mm 0 mps 674 mmHg 81%
06:00 +23°C° 0.2 mm 0 mps 675 mmHg 75%
07:00 +24°C° 0.2 mm 0 mps 675 mmHg 68%
08:00 +26°C° 0.2 mm 0 mps 676 mmHg 62%
09:00 +30°C° 0.1 mm 1 mps 675 mmHg 56%
10:00 +31°C° 0.1 mm 1 mps 675 mmHg 50%
11:00 +33°C° 0.1 mm 1 mps 675 mmHg 44%
12:00 +34°C° 0.2 mm 1 mps 674 mmHg 41%
13:00 +34°C° 0.2 mm 1 mps 674 mmHg 39%
14:00 +36°C° 0.2 mm 2 mps 673 mmHg 36%
15:00 +35°C° 0.9 mm 2 mps 673 mmHg 41%
16:00 +32°C° 0.9 mm 2 mps 672 mmHg 47%
17:00 +31°C° 0.9 mm 3 mps 672 mmHg 52%
18:00 +29°C° 2 mm 2 mps 672 mmHg 58%
19:00 +27°C° 2 mm 2 mps 672 mmHg 65%
20:00 +24°C° 2 mm 1 mps 672 mmHg 72%
21:00 +24°C° 0.5 mm 1 mps 673 mmHg 75%
22:00 +24°C° 0.5 mm 1 mps 674 mmHg 78%
23:00 +21°C° 0.5 mm 0 mps 674 mmHg 81%
Show more

We Need Your Consent

Meteoprog and our Service Providers may store and access personal data such as cookies, device identifiers or other similar technologies on your device and process such data to personalise content and ads, as well as provide social media features and to analyse the traffic.

  • Store and/or access information on your device

    Cookies, device identifiers or other information can be stored or accessed on your device for the purposes indicated above.

  • Personalised ads and content, ad and content measurement, audience insights, and products development

    Ads and content can be personalised based on a profile. More data can be added to better personalise ads and content. Ad and content performance can be measured. Insights about the audience who saw the ads and content can be derived. Such data can be used to develop or improve user’s experience, systems and software.

By clicking ‘I Agree’ you will allow the use of indicated cookies, device identifiers, web beacons or other similar technologies. Your settings can be changed in the browser on your device.

For certain purposes, legitimate interests may be relied on, rather than consent. You can read more about this in our Privacy and Cookie Policy.